Weather History for Cancun, Mexico

Change the Weather History Date:

Friday, February 15, 2013

  Actual Average Record
Temperature  
Mean Temperature 78 °F -  
Max Temperature 86 °F 82 °F 87 °F (2003)
Min Temperature 71 °F 65 °F 55 °F (2011)
Cooling Degree Days 14    
Growing Degree Days 28 (Base 50)    
Moisture  
Dew Point 71 °F    
Average Humidity 79    
Maximum Humidity 94    
Minimum Humidity 48    
Precipitation  
Precipitation 0.15 in - - ()
Sea Level Pressure  
Sea Level Pressure 29.92 in    
Wind  
Wind Speed 4 mph ()    
Max Wind Speed 13 mph    
Max Gust Speed -    
Visibility 6.8 miles    
Events Rain    
Averages and records for this station are not official NWS values.
T = Trace of Precipitation, MM = Missing Value Source: Averaged Metar Reports

Daily Weather History Graph

Daily Weather History Graph

Search for Another Location

Airport:

Trip Planner

Search our weather history database for the weather conditions in past years. The results will help you decide how hot, cold, wet, or windy it might be!

Date:

Astronomy

Feb. 15, 2013 Rise Set
Actual Time 6:17 AM CST 5:45 PM CST
Civil Twilight 5:54 AM CST 6:08 PM CST
Nautical Twilight 5:28 AM CST 6:34 PM CST
Astronomical Twilight 5:02 AM CST 7:00 PM CST
Moon 9:42 AM CST (2/15) 10:53 PM CST (2/15)
Length of Visible Light 12h 13m
Length of Day
11h 28m
Waxing Crescent, 30% of the Moon is Illuminated
Feb 15
Waxing Crescent
Feb 17
First Quarter
Feb 25
Full
Mar 4
Last Quarter
Mar 11
New

Hourly Weather History & Observations

Time (CST) Temp. Heat Index Dew Point Humidity Pressure Visibility Wind Dir Wind Speed Gust Speed Precip Events Conditions
12:45 AM 77.0 °F - 71.6 °F 83% 29.91 in 7.0 mi South 5.8 mph - N/A   Mostly Cloudy
1:44 AM 75.2 °F - 71.6 °F 89% 29.90 in 7.0 mi Calm Calm - N/A   Mostly Cloudy
2:46 AM 73.4 °F - 71.6 °F 94% 29.89 in 7.0 mi Calm Calm - N/A   Mostly Cloudy
3:45 AM 73.4 °F - 71.6 °F 94% 29.90 in 7.0 mi NW 5.8 mph - N/A   Scattered Clouds
4:44 AM 73.4 °F - 71.6 °F 94% 29.91 in 7.0 mi Calm Calm - N/A   Partly Cloudy
5:43 AM 73.4 °F - 71.6 °F 94% 29.91 in 7.0 mi NW 5.8 mph - N/A   Scattered Clouds
6:42 AM 73.4 °F - 71.6 °F 94% 29.94 in 7.0 mi North 5.8 mph - N/A   Mostly Cloudy
7:46 AM 75.2 °F - 71.6 °F 89% 29.96 in 7.0 mi SE 2.3 mph - N/A   Mostly Cloudy
8:44 AM 80.6 °F 84.6 °F 71.6 °F 74% 29.96 in 7.0 mi South 8.1 mph - N/A   Overcast
9:44 AM 84.2 °F 88.4 °F 69.8 °F 62% 29.98 in 7.0 mi South 6.9 mph - N/A   Mostly Cloudy
10:46 AM 84.2 °F 87.3 °F 68.0 °F 58% 29.96 in 7.0 mi South 8.1 mph - N/A   Mostly Cloudy
11:44 AM 86.0 °F 87.3 °F 64.4 °F 48% 29.94 in 7.0 mi SSE 4.6 mph - N/A   Mostly Cloudy
12:42 PM 84.2 °F 88.4 °F 69.8 °F 62% 29.92 in 7.0 mi SSE 12.7 mph - N/A   Mostly Cloudy
1:41 PM 86.0 °F 89.4 °F 68.0 °F 55% 29.89 in 7.0 mi SSE 10.4 mph - N/A   Mostly Cloudy
2:50 PM 84.2 °F 87.3 °F 68.0 °F 58% 29.87 in 7.0 mi SSE 9.2 mph - N/A   Mostly Cloudy
3:49 PM 80.6 °F 84.6 °F 71.6 °F 74% 29.87 in 7.0 mi SE 11.5 mph - N/A   Mostly Cloudy
4:43 PM 82.4 °F 86.3 °F 69.8 °F 66% 29.88 in 7.0 mi SE 9.2 mph - N/A   Mostly Cloudy
5:47 PM 78.8 °F - 71.6 °F 78% 29.90 in 7.0 mi ESE 4.6 mph - N/A   Mostly Cloudy
6:41 PM 78.8 °F - 71.6 °F 78% 29.91 in 7.0 mi ESE 4.6 mph - N/A   Mostly Cloudy
7:42 PM 78.8 °F - 71.6 °F 78% 29.93 in 7.0 mi East 2.3 mph - N/A   Mostly Cloudy
8:44 PM 75.2 °F - 71.6 °F 89% 29.94 in 5.0 mi WSW 8.1 mph - N/A Rain Rain
9:42 PM 71.6 °F - 69.8 °F 94% 29.96 in 5.0 mi WNW 3.5 mph - N/A Rain Light Rain
10:46 PM 73.4 °F - 71.6 °F 94% 29.97 in 6.0 mi West 3.5 mph - N/A   Mostly Cloudy
11:49 PM 73.4 °F - 71.6 °F 94% 29.95 in 6.0 mi Calm Calm - N/A   Mostly Cloudy